Weather History for Worland, WY

Change the Weather History Date:

Friday, May 3, 2013

  Actual Average Record
Temperature  
Mean Temperature 48 °F 51 °F  
Max Temperature 66 °F 66 °F 89 °F (1986)
Min Temperature 30 °F 37 °F 25 °F (1967)
Degree Days  
Heating Degree Days 17 14  
Month to date heating degree days 68 43  
Since 1 July heating degree days 7247 7510  
Cooling Degree Days 0 0  
Month to date cooling degree days 0 0  
Year to date cooling degree days 0 1  
Moisture  
Dew Point 24 °F    
Average Humidity 48    
Maximum Humidity 85    
Minimum Humidity 11    
Precipitation  
Precipitation 0.00 in 0.04 in 0.18 in (1991)
Month to date precipitation 0.27 0.13  
Year to date precipitation 1.84 1.87  
Sea Level Pressure  
Sea Level Pressure 30.17 in    
Wind  
Wind Speed 5 mph (North)    
Max Wind Speed 17 mph    
Max Gust Speed 23 mph    
Visibility 10 miles    
Events      
T = Trace of Precipitation, MM = Missing Value Source: NWS Daily Summary

Daily Weather History Graph

Daily Weather History Graph

Search for Another Location

Airport:

Trip Planner

Search our weather history database for the weather conditions in past years. The results will help you decide how hot, cold, wet, or windy it might be!

Date:

Astronomy

May. 03, 2013 Rise Set
Actual Time 6:00 AM MDT 8:17 PM MDT
Civil Twilight 5:28 AM MDT 8:49 PM MDT
Nautical Twilight 4:48 AM MDT 9:29 PM MDT
Astronomical Twilight 4:04 AM MDT 10:13 PM MDT
Moon 2:39 AM MDT (5/3) 2:03 PM MDT (5/3)
Length of Visible Light 15h 21m
Length of Day
14h 17m
Last Quarter, 36% of the Moon is Illuminated
May 3
Last Quarter
May 9
New
May 17
First Quarter
May 24
Full
May 31
Last Quarter

Hourly Weather History & Observations

Time (MDT) Temp. Windchill Dew Point Humidity Pressure Visibility Wind Dir Wind Speed Gust Speed Precip Events Conditions
12:53 AM 39.9 °F - 26.1 °F 58% 30.34 in 10.0 mi Calm Calm - N/A   Clear
1:53 AM 37.0 °F 34.5 °F 28.0 °F 70% 30.32 in 10.0 mi NW 3.5 mph - N/A   Clear
2:53 AM 34.0 °F 28.8 °F 28.0 °F 79% 30.32 in 10.0 mi SSE 5.8 mph - N/A   Clear
3:53 AM 33.1 °F 26.9 °F 27.0 °F 78% 30.30 in 10.0 mi SSE 6.9 mph - N/A   Clear
4:53 AM 32.0 °F 26.4 °F 26.1 °F 79% 30.29 in 10.0 mi SSE 5.8 mph - N/A   Clear
5:53 AM 30.9 °F 25.2 °F 26.1 °F 82% 30.27 in 10.0 mi South 5.8 mph - N/A   Clear
6:53 AM 33.1 °F 30.0 °F 28.0 °F 82% 30.26 in 10.0 mi South 3.5 mph - N/A   Clear
7:53 AM 36.0 °F 33.3 °F 30.0 °F 79% 30.27 in 10.0 mi WSW 3.5 mph - N/A   Clear
8:53 AM 43.0 °F - 30.0 °F 60% 30.24 in 6.0 mi Calm Calm - N/A   Haze
9:53 AM 48.0 °F - 30.9 °F 52% 30.21 in 10.0 mi Calm Calm - N/A   Mostly Cloudy
10:53 AM 53.1 °F - 27.0 °F 37% 30.17 in 10.0 mi Calm Calm - N/A   Clear
11:53 AM 59.0 °F - 19.0 °F 21% 30.14 in 10.0 mi North 4.6 mph - N/A   Partly Cloudy
12:53 PM 62.1 °F - 17.1 °F 18% 30.10 in 10.0 mi Calm Calm - N/A   Clear
1:53 PM 64.0 °F - 14.0 °F 14% 30.08 in 10.0 mi NW 9.2 mph - N/A   Clear
2:53 PM 66.0 °F - 16.0 °F 15% 30.07 in 10.0 mi NE 4.6 mph - N/A   Clear
3:53 PM 66.0 °F - 10.9 °F 12% 30.05 in 10.0 mi WNW 3.5 mph - N/A   Partly Cloudy
4:53 PM 64.0 °F - 15.1 °F 15% 30.06 in 10.0 mi Variable 3.5 mph - N/A   Mostly Cloudy
5:53 PM 63.0 °F - 14.0 °F 15% 30.07 in 10.0 mi Calm Calm - N/A   Mostly Cloudy
6:53 PM 61.0 °F - 19.9 °F 21% 30.07 in 10.0 mi NE 11.5 mph - N/A   Overcast
7:53 PM 61.0 °F - 17.1 °F 18% 30.07 in 10.0 mi Calm Calm - N/A   Overcast
8:53 PM 55.9 °F - 28.9 °F 36% 30.08 in 10.0 mi North 11.5 mph - N/A   Overcast
9:53 PM 55.9 °F - 28.9 °F 36% 30.08 in 10.0 mi NNE 4.6 mph - N/A   Overcast
10:53 PM 54.0 °F - 30.0 °F 40% 30.07 in 10.0 mi North 11.5 mph 17.3 mph N/A   Overcast
11:53 PM 52.0 °F - 32.0 °F 47% 30.07 in 10.0 mi NW 6.9 mph - N/A   Overcast